• In Czech Republic
  • List of Countries
  • For 7 days
  • Water Temperature
  • Satellite Maps
  • Weather Map
  • Weather Widgets
  • user-avatar
    Login

    Hourly Weather Stepanakert

    Today, 19 October, Thursday

    Time Temperature Precipitation Wind Pressure Humidity
    00:00 +11°C° 0 mm 1 mps 698 mmHg 80%
    01:00 +11°C° 0 mm 1 mps 698 mmHg 81%
    02:00 +11°C° 0 mm 1 mps 698 mmHg 83%
    03:00 +10°C° 0 mm 1 mps 698 mmHg 82%
    04:00 +10°C° 0 mm 1 mps 698 mmHg 83%
    05:00 +10°C° 0 mm 1 mps 698 mmHg 83%
    06:00 +10°C° 0 mm 1 mps 698 mmHg 84%
    07:00 +11°C° 0 mm 1 mps 698 mmHg 79%
    08:00 +12°C° 0 mm 1 mps 698 mmHg 74%
    09:00 +14°C° 0 mm 1 mps 698 mmHg 68%
    10:00 +15°C° 0 mm 2 mps 698 mmHg 64%
    11:00 +16°C° 0 mm 2 mps 698 mmHg 60%
    12:00 +16°C° 0 mm 2 mps 697 mmHg 57%
    13:00 +17°C° 0 mm 2 mps 697 mmHg 57%
    14:00 +17°C° 0 mm 2 mps 697 mmHg 57%
    15:00 +17°C° 0 mm 2 mps 696 mmHg 59%
    16:00 +15°C° 0 mm 2 mps 696 mmHg 64%
    17:00 +14°C° 0 mm 1 mps 696 mmHg 70%
    18:00 +13°C° 0 mm 1 mps 696 mmHg 75%
    19:00 +13°C° 0 mm 1 mps 696 mmHg 74%
    20:00 +13°C° 0 mm 1 mps 696 mmHg 74%
    21:00 +12°C° 0 mm 1 mps 696 mmHg 73%
    22:00 +12°C° 0 mm 1 mps 695 mmHg 71%
    23:00 +12°C° 0 mm 1 mps 695 mmHg 70%

    Tomorrow, 20 October, Friday

    Time Temperature Precipitation Wind Pressure Humidity
    00:00 +12°C° 0 mm 1 mps 695 mmHg 68%
    01:00 +12°C° 0 mm 1 mps 695 mmHg 67%
    02:00 +11°C° 0 mm 1 mps 695 mmHg 65%
    03:00 +11°C° 0 mm 1 mps 694 mmHg 64%
    04:00 +11°C° 0 mm 1 mps 694 mmHg 63%
    05:00 +11°C° 0 mm 1 mps 694 mmHg 62%
    06:00 +11°C° 0 mm 1 mps 694 mmHg 60%
    07:00 +13°C° 0 mm 1 mps 694 mmHg 56%
    08:00 +14°C° 0 mm 1 mps 695 mmHg 51%
    09:00 +16°C° 0 mm 1 mps 695 mmHg 46%
    10:00 +18°C° 0 mm 1 mps 695 mmHg 43%
    11:00 +18°C° 0 mm 2 mps 695 mmHg 41%
    12:00 +19°C° 0 mm 2 mps 695 mmHg 38%
    13:00 +19°C° 0 mm 2 mps 695 mmHg 39%
    14:00 +19°C° 0 mm 2 mps 695 mmHg 40%
    15:00 +19°C° 0 mm 2 mps 694 mmHg 40%
    16:00 +18°C° 0 mm 2 mps 694 mmHg 46%
    17:00 +16°C° 0 mm 1 mps 694 mmHg 52%
    18:00 +15°C° 0 mm 1 mps 694 mmHg 58%
    19:00 +14°C° 0 mm 1 mps 694 mmHg 58%
    20:00 +14°C° 0 mm 1 mps 694 mmHg 58%
    21:00 +14°C° 0 mm 1 mps 694 mmHg 58%
    22:00 +13°C° 0 mm 1 mps 694 mmHg 58%
    23:00 +13°C° 0 mm 1 mps 694 mmHg 57%

    Day after tomorrow, 21 October, Saturday

    Time Temperature Precipitation Wind Pressure Humidity
    00:00 +13°C° 0 mm 1 mps 694 mmHg 57%
    01:00 +12°C° 0 mm 1 mps 694 mmHg 57%
    02:00 +12°C° 0 mm 1 mps 694 mmHg 57%
    03:00 +12°C° 0 mm 1 mps 694 mmHg 57%
    04:00 +12°C° 0 mm 1 mps 694 mmHg 57%
    05:00 +11°C° 0 mm 1 mps 694 mmHg 57%
    06:00 +11°C° 0 mm 1 mps 694 mmHg 57%
    07:00 +13°C° 0 mm 1 mps 694 mmHg 53%
    08:00 +15°C° 0 mm 1 mps 694 mmHg 49%
    09:00 +16°C° 0 mm 1 mps 695 mmHg 46%
    10:00 +18°C° 0 mm 1 mps 694 mmHg 43%
    11:00 +18°C° 0 mm 2 mps 694 mmHg 41%
    12:00 +19°C° 0 mm 2 mps 694 mmHg 39%
    13:00 +19°C° 0 mm 2 mps 693 mmHg 40%
    14:00 +19°C° 0 mm 2 mps 693 mmHg 40%
    15:00 +19°C° 0 mm 2 mps 692 mmHg 41%
    16:00 +19°C° 0 mm 1 mps 692 mmHg 47%
    17:00 +16°C° 0 mm 1 mps 692 mmHg 54%
    18:00 +14°C° 0 mm 0 mps 692 mmHg 61%
    19:00 +13°C° 0 mm 0 mps 692 mmHg 61%
    20:00 +14°C° 0 mm 1 mps 692 mmHg 60%
    21:00 +14°C° 0 mm 1 mps 692 mmHg 60%
    22:00 +13°C° 0 mm 1 mps 692 mmHg 59%
    23:00 +13°C° 0 mm 1 mps 692 mmHg 58%

    22 October, Sunday

    Time Temperature Precipitation Wind Pressure Humidity
    00:00 +13°C° 0 mm 1 mps 692 mmHg 57%
    01:00 +13°C° 0 mm 1 mps 691 mmHg 56%
    02:00 +12°C° 0 mm 1 mps 691 mmHg 56%
    03:00 +12°C° 0 mm 1 mps 691 mmHg 55%
    04:00 +12°C° 0 mm 1 mps 691 mmHg 54%
    05:00 +12°C° 0 mm 1 mps 691 mmHg 54%
    06:00 +11°C° 0 mm 1 mps 691 mmHg 53%
    07:00 +13°C° 0 mm 1 mps 691 mmHg 50%
    08:00 +15°C° 0 mm 1 mps 692 mmHg 46%
    09:00 +16°C° 0 mm 1 mps 692 mmHg 42%
    10:00 +17°C° 0 mm 2 mps 692 mmHg 40%
    11:00 +18°C° 0 mm 2 mps 692 mmHg 37%
    12:00 +19°C° 0 mm 3 mps 691 mmHg 35%
    13:00 +19°C° 0 mm 3 mps 691 mmHg 35%
    14:00 +19°C° 0 mm 3 mps 690 mmHg 36%
    15:00 +19°C° 0 mm 3 mps 690 mmHg 37%
    16:00 +17°C° 0 mm 2 mps 690 mmHg 42%
    17:00 +16°C° 0 mm 1 mps 690 mmHg 48%
    18:00 +14°C° 0 mm 1 mps 690 mmHg 54%
    19:00 +14°C° 0 mm 1 mps 690 mmHg 54%
    20:00 +13°C° 0 mm 1 mps 690 mmHg 55%
    21:00 +13°C° 0 mm 1 mps 690 mmHg 55%
    22:00 +13°C° 0 mm 1 mps 690 mmHg 55%
    23:00 +12°C° 0 mm 1 mps 690 mmHg 54%

    23 October, Monday

    Time Temperature Precipitation Wind Pressure Humidity
    00:00 +12°C° 0 mm 1 mps 690 mmHg 54%
    01:00 +12°C° 0 mm 1 mps 690 mmHg 54%
    02:00 +12°C° 0 mm 2 mps 690 mmHg 53%
    03:00 +10°C° 0 mm 2 mps 690 mmHg 53%
    04:00 +10°C° 0 mm 2 mps 690 mmHg 52%
    05:00 +11°C° 0 mm 1 mps 691 mmHg 52%
    06:00 +11°C° 0 mm 1 mps 691 mmHg 52%
    07:00 +12°C° 0 mm 2 mps 692 mmHg 48%
    08:00 +14°C° 0 mm 2 mps 692 mmHg 44%
    09:00 +16°C° 0 mm 2 mps 693 mmHg 40%
    10:00 +17°C° 0 mm 2 mps 693 mmHg 39%
    11:00 +17°C° 0 mm 3 mps 693 mmHg 37%
    12:00 +18°C° 0 mm 3 mps 693 mmHg 36%
    13:00 +18°C° 0 mm 3 mps 693 mmHg 37%
    14:00 +18°C° 0 mm 3 mps 693 mmHg 38%
    15:00 +18°C° 0 mm 3 mps 693 mmHg 39%
    16:00 +16°C° 0 mm 3 mps 693 mmHg 48%
    17:00 +13°C° 0 mm 3 mps 693 mmHg 57%
    18:00 +12°C° 0 mm 3 mps 693 mmHg 66%
    19:00 +11°C° 0 mm 3 mps 694 mmHg 70%
    20:00 +11°C° 0 mm 3 mps 694 mmHg 75%
    21:00 +10°C° 0 mm 3 mps 694 mmHg 79%
    22:00 +10°C° 0 mm 2 mps 694 mmHg 80%
    23:00 +10°C° 0 mm 2 mps 694 mmHg 81%

    24 October, Tuesday

    Time Temperature Precipitation Wind Pressure Humidity
    00:00 +10°C° 0 mm 2 mps 694 mmHg 82%
    01:00 +10°C° 0 mm 2 mps 694 mmHg 82%
    02:00 +10°C° 0 mm 2 mps 694 mmHg 82%
    03:00 +10°C° 0 mm 2 mps 694 mmHg 83%
    04:00 +9°C° 0 mm 2 mps 694 mmHg 83%
    05:00 +10°C° 0 mm 1 mps 694 mmHg 83%
    06:00 +10°C° 0 mm 1 mps 694 mmHg 83%
    07:00 +11°C° 0 mm 1 mps 695 mmHg 80%
    08:00 +12°C° 0 mm 2 mps 695 mmHg 77%
    09:00 +12°C° 0 mm 2 mps 695 mmHg 74%
    10:00 +13°C° 0 mm 2 mps 695 mmHg 71%
    11:00 +14°C° 0 mm 2 mps 695 mmHg 67%
    12:00 +15°C° 0 mm 2 mps 695 mmHg 64%
    13:00 +15°C° 0 mm 2 mps 695 mmHg 64%
    14:00 +15°C° 0 mm 2 mps 694 mmHg 65%
    15:00 +15°C° 0 mm 2 mps 694 mmHg 65%
    16:00 +14°C° 0 mm 2 mps 694 mmHg 70%
    17:00 +13°C° 0 mm 1 mps 695 mmHg 75%
    18:00 +12°C° 0 mm 1 mps 695 mmHg 79%
    19:00 +12°C° 0 mm 1 mps 695 mmHg 78%
    20:00 +11°C° 0 mm 1 mps 695 mmHg 77%
    21:00 +11°C° 0 mm 1 mps 695 mmHg 77%
    22:00 +11°C° 0 mm 1 mps 695 mmHg 76%
    23:00 +11°C° 0 mm 1 mps 695 mmHg 75%
    Show more